| time (UTC) | temp F | wind direction | speed knots | gust knots | rain 1hr in | rain 24hr in | rain mn in | humidity % | barometer mb |
| 20260506120048 | 61 | 228 | 5.2 | 10.4 | 0.00 | 0.00 | 0.00 | 75 | 1008.6 |
| 20260506114547 | 61 | 200 | 5.2 | 11.3 | 0.00 | 0.00 | 0.00 | 75 | 1008.7 |
| 20260506113046 | 60 | 222 | 4.3 | 9.6 | 0.00 | 0.00 | 0.00 | 76 | 1008.9 |
| 20260506111545 | 60 | 227 | 4.3 | 9.6 | 0.00 | 0.00 | 0.00 | 76 | 1009.0 |
| 20260506110042 | 60 | 216 | 5.2 | 11.3 | 0.00 | 0.00 | 0.00 | 76 | 1008.8 |
| 20260506104541 | 59 | 247 | 4.3 | 7.8 | 0.00 | 0.00 | 0.00 | 76 | 1008.9 |
| 20260506103053 | 59 | 232 | 4.3 | 8.7 | 0.00 | 0.00 | 0.00 | 76 | 1009.0 |
| 20260506101547 | 59 | 221 | 4.3 | 8.7 | 0.00 | 0.00 | 0.00 | 76 | 1008.6 |
| 20260506100045 | 59 | 197 | 3.5 | 9.6 | 0.00 | 0.00 | 0.00 | 74 | 1008.7 |
| 20260506094545 | 59 | 224 | 4.3 | 7.8 | 0.00 | 0.00 | 0.00 | 74 | 1008.7 |
| 20260506093041 | 58 | 189 | 3.5 | 6.1 | 0.00 | 0.00 | 0.00 | 73 | 1008.6 |
| 20260506091550 | 58 | 225 | 3.5 | 7.8 | 0.00 | 0.00 | 0.00 | 73 | 1008.6 |
| 20260506090056 | 59 | 218 | 3.5 | 8.7 | 0.00 | 0.00 | 0.00 | 71 | 1008.4 |
| 20260506084551 | 59 | 229 | 4.3 | 9.6 | 0.00 | 0.00 | 0.00 | 70 | 1008.6 |
| 20260506083047 | 59 | 219 | 2.6 | 9.6 | 0.00 | 0.00 | 0.00 | 70 | 1008.3 |
| 20260506081546 | 59 | 207 | 3.5 | 7.0 | 0.00 | 0.00 | 0.00 | 69 | 1008.2 |
| 20260506073048 | 60 | 269 | 1.7 | 5.2 | 0.00 | 0.00 | 0.00 | 67 | 1008.4 |
| 20260506071549 | 60 | 215 | 3.5 | 6.1 | 0.00 | 0.00 | 0.00 | 66 | 1008.2 |
| 20260506061544 | 61 | 176 | 2.6 | 7.8 | 0.00 | 0.00 | 0.00 | 64 | 1007.9 |
| 20260506044552 | 63 | 153 | 5.2 | 9.6 | 0.00 | 0.00 | 0.00 | 62 | 1008.2 |
| 20260506043047 | 63 | 192 | 5.2 | 10.4 | 0.00 | 0.00 | 0.00 | 61 | 1008.2 |
| 20260506041547 | 63 | 198 | 3.5 | 8.7 | 0.00 | 0.00 | 0.00 | 62 | 1008.1 |
| 20260506040047 | 64 | 222 | 3.5 | 7.8 | 0.00 | 0.00 | 0.00 | 62 | 1008.1 |
| 20260506034558 | 63 | 212 | 3.5 | 7.0 | 0.00 | 0.00 | 0.00 | 65 | 1008.1 |
| 20260506033049 | 63 | 202 | 0.9 | 3.5 | 0.00 | 0.00 | 0.00 | 67 | 1008.3 |
| 20260506031547 | 63 | 178 | 0.9 | 5.2 | 0.00 | 0.00 | 0.00 | 67 | 1008.2 |
| 20260506030046 | 64 | 221 | 1.7 | 4.3 | 0.00 | 0.00 | 0.00 | 66 | 1008.2 |
| 20260506024605 | 64 | 173 | 2.6 | 5.2 | 0.00 | 0.00 | 0.00 | 65 | 1008.0 |
| 20260506023044 | 64 | 207 | 0.9 | 4.3 | 0.00 | 0.00 | 0.00 | 64 | 1008.1 |
| 20260506021544 | 65 | 225 | 0.9 | 4.3 | 0.00 | 0.00 | 0.00 | 63 | 1008.5 |
| 20260506020048 | 65 | 211 | 0.9 | 4.3 | 0.00 | 0.00 | 0.00 | 62 | 1008.4 |
| 20260506014550 | 66 | 236 | 0.9 | 2.6 | 0.00 | 0.00 | 0.00 | 61 | 1008.6 |
| 20260506013102 | 66 | 279 | 3.5 | 7.0 | 0.00 | 0.00 | 0.00 | 61 | 1008.4 |
| 20260506011602 | 66 | 246 | 1.7 | 6.1 | 0.00 | 0.00 | 0.00 | 60 | 1008.4 |
| 20260506010047 | 66 | 300 | 1.7 | 3.5 | 0.00 | 0.00 | 0.00 | 60 | 1008.2 |
| 20260506004541 | 67 | 238 | 2.6 | 6.1 | 0.00 | 0.00 | 0.00 | 58 | 1007.9 |
| 20260506003041 | 67 | 232 | 1.7 | 5.2 | 0.00 | 0.00 | 0.00 | 57 | 1007.8 |
| 20260506001548 | 67 | 248 | 1.7 | 5.2 | 0.00 | 0.00 | 0.00 | 58 | 1007.4 |
| 20260506000050 | 66 | 300 | 0.9 | 7.0 | 0.00 | 0.00 | 0.00 | 60 | 1007.2 |
| 20260505234546 | 67 | 180 | 0.9 | 2.6 | 0.00 | 0.00 | 0.00 | 59 | 1006.7 |
| 20260505233045 | 67 | 0 | 0.9 | 3.5 | 0.00 | 0.00 | 0.00 | 57 | 1006.1 |
| 20260505231543 | 67 | 158 | 0.0 | 4.3 | 0.00 | 0.00 | 0.00 | 58 | 1006.1 |
| 20260505230052 | 68 | 307 | 5.2 | 14.8 | 0.00 | 0.00 | 0.00 | 56 | 1006.0 |
| 20260505224540 | 71 | 324 | 10.4 | 19.1 | 0.00 | 0.00 | 0.00 | 48 | 1005.8 |
| 20260505223056 | 73 | 227 | 4.3 | 12.2 | 0.00 | 0.00 | 0.00 | 42 | 1004.5 |
| 20260505221547 | 74 | 200 | 4.3 | 11.3 | 0.00 | 0.00 | 0.00 | 41 | 1004.1 |
| 20260505220048 | 74 | 146 | 4.3 | 12.2 | 0.00 | 0.00 | 0.00 | 40 | 1003.8 |
| 20260505214544 | 75 | 182 | 6.1 | 16.5 | 0.00 | 0.00 | 0.00 | 39 | 1003.8 |
| 20260505213052 | 76 | 190 | 4.3 | 16.5 | 0.00 | 0.00 | 0.00 | 37 | 1003.7 |
| 20260505211540 | 75 | 170 | 6.1 | 13.9 | 0.00 | 0.00 | 0.00 | 39 | 1003.5 |
| 20260505210047 | 75 | 211 | 4.3 | 13.9 | 0.00 | 0.00 | 0.00 | 40 | 1003.5 |
| 20260505204545 | 75 | 206 | 7.0 | 20.0 | 0.00 | 0.00 | 0.00 | 40 | 1003.4 |
| 20260505203051 | 76 | 165 | 6.1 | 13.9 | 0.00 | 0.00 | 0.00 | 39 | 1003.4 |
| 20260505201544 | 77 | 177 | 7.0 | 20.0 | 0.00 | 0.00 | 0.00 | 36 | 1003.6 |
| 20260505200047 | 77 | 175 | 7.0 | 15.6 | 0.00 | 0.00 | 0.00 | 36 | 1003.7 |
| 20260505194600 | 79 | 209 | 7.0 | 19.1 | 0.00 | 0.00 | 0.00 | 30 | 1003.7 |
| 20260505193045 | 80 | 211 | 13.0 | 25.2 | 0.00 | 0.00 | 0.00 | 31 | 1003.9 |
| 20260505191547 | 80 | 185 | 10.4 | 22.6 | 0.00 | 0.00 | 0.00 | 30 | 1004.1 |
| 20260505190046 | 78 | 189 | 8.7 | 19.1 | 0.00 | 0.00 | 0.00 | 32 | 1004.3 |
| 20260505184541 | 77 | 246 | 8.7 | 20.0 | 0.00 | 0.00 | 0.00 | 33 | 1004.6 |
| 20260505183056 | 78 | 212 | 7.0 | 17.4 | 0.00 | 0.00 | 0.00 | 34 | 1004.8 |
| 20260505181545 | 78 | 205 | 8.7 | 19.1 | 0.00 | 0.00 | 0.00 | 33 | 1004.9 |
| 20260505180049 | 79 | 219 | 13.9 | 24.3 | 0.00 | 0.00 | 0.00 | 34 | 1004.9 |
| 20260505174548 | 78 | 229 | 10.4 | 23.5 | 0.00 | 0.00 | 0.00 | 33 | 1005.2 |
| 20260505173051 | 78 | 192 | 10.4 | 24.3 | 0.00 | 0.00 | 0.00 | 34 | 1005.3 |
| 20260505171548 | 77 | 198 | 9.6 | 21.7 | 0.00 | 0.00 | 0.00 | 35 | 1005.7 |
| 20260505170047 | 76 | 230 | 6.1 | 16.5 | 0.00 | 0.00 | 0.00 | 38 | 1005.9 |
| 20260505164558 | 76 | 246 | 8.7 | 19.1 | 0.00 | 0.00 | 0.00 | 37 | 1006.3 |
| 20260505163053 | 76 | 261 | 10.4 | 20.9 | 0.00 | 0.00 | 0.00 | 38 | 1006.7 |
| 20260505161544 | 74 | 270 | 7.8 | 16.5 | 0.00 | 0.00 | 0.00 | 40 | 1006.6 |
| 20260505153105 | 72 | 180 | 6.1 | 17.4 | 0.00 | 0.00 | 0.00 | 44 | 1007.7 |
| 20260505151553 | 70 | 242 | 7.0 | 14.8 | 0.00 | 0.00 | 0.00 | 44 | 1007.9 |
| 20260505140104 | 63 | 206 | 6.1 | 13.0 | 0.00 | 0.00 | 0.00 | 55 | 1008.0 |
| 20260505124547 | 59 | 217 | 8.7 | 14.8 | 0.00 | 0.00 | 0.00 | 59 | 1008.5 |
| 20260505123045 | 59 | 246 | 7.8 | 16.5 | 0.00 | 0.00 | 0.00 | 58 | 1008.3 |
| 20260505121544 | 58 | 205 | 7.0 | 12.2 | 0.00 | 0.00 | 0.00 | 60 | 1008.0 |